Regional Weather Roundup
Issued by NWS

Home | Current Version | Previous Version | Graphics & Text | Print | Product List | Glossary On
Versions: 1 2 3 4 5 6 7 8 9 10 11 12 13 14 15 16 17 18 19 20 21 22 23 24 25 26 27 28 29 30 31 32 33 34 35 36 37 38 39 40 41 42 43 44 45 46 47 48 49 50
000
ASUS44 KMEG 231910
RWRTN
TENNESSEE HOURLY STATE WEATHER ROUNDUP
NATIONAL WEATHER SERVICE MEMPHIS TN
200 PM CDT WED JUL 23 2014

TNZ002-004-019-021-049-052-054-088>092-232000-
WEST TENNESSEE

CITY           SKY/WX    TMP DP  RH WIND       PRES   REMARKS
MEMPHIS INTL   MOSUNNY   89  73  59 VRB6      30.03F HX  97
NWS MEMPHIS      N/A     92 N/A N/A MISG        N/A
JACKSON        PTSUNNY   80  74  81 SW7       30.04F THUNDER
DYERSBURG      PTSUNNY   84  66  54 N9        30.09R
UNION CITY     CLOUDY    73  72  94 VRB3      30.08F
PARIS          MOSUNNY   83  74  74 W10       30.03F
LEXINGTON      MOSUNNY   86  72  62 N13G20    30.04F HX  92
SAVANNAH         N/A     88  75  66 SW5         N/A  HX  97
$$

TNZ008-025-027-028-033-062-065-066-232000-
NORTH MIDDLE TENNESSEE

CITY           SKY/WX    TMP DP  RH WIND       PRES   REMARKS
NASHVILLE      PTSUNNY   90  70  51 S6        30.02F HX  95
DICKSON        MOSUNNY   84  72  65 NW8       30.05F
PORTLAND       CLOUDY    86  73  66 S8        30.01F HX  93
CLARKSVILLE    MOSUNNY   91  69  48 SW13      29.95F HX  96
LEBANON        MOSUNNY   89  70  53 VRB5      30.01F HX  94
SMYRNA         PTSUNNY   94  75  53 VRB5      30.02F HX 105
MURFREESBORO   MOSUNNY   89  72  57 VRB6      30.03  HX  96
LIVINGSTON       N/A     86  70  58 NW7       30.06F HX  90
GALLATIN       MOSUNNY   94  69  43 SW6       30.03F HX  99
CROSSVILLE     RAIN      70  68  93 VRB6      30.12F FOG
$$

TNZ061-075-076-078-094-096-097-232000-
SOUTH MIDDLE TENNESSEE

CITY           SKY/WX    TMP DP  RH WIND       PRES   REMARKS
LEWISBURG      MOSUNNY   84  73  69 S6        30.06F HX  90
FAYETTEVILLE   SUNNY     77  72  83 CALM      30.08F
TULLAHOMA      MOSUNNY   82  70  65 CALM      30.08F
WINCHESTER     MOSUNNY   82  72  69 NE5       30.08F
MCMINNVILLE    SUNNY     79  73  83 S5        30.07F
COLUMBIA       MOSUNNY   88  73  62 S3        30.04F HX  96
SHELBYVILLE    SUNNY     88  73  62 W3        30.05F HX  96
$$

TNZ017-018-042-046-047-232000-
NORTHEAST TENNESSEE

CITY           SKY/WX    TMP DP  RH WIND       PRES   REMARKS
TRI CITIES     PTSUNNY   81  66  60 W8        30.08F
ELIZABETHTON   PTCLDY    79  70  73 SW5       30.08F
$$

TNZ012-013-036-069-073-074-232000-
CENTRAL EAST TENNESSEE

CITY           SKY/WX    TMP DP  RH WIND       PRES   REMARKS
KNOXVILLE      PTSUNNY   82  72  71 W7        30.05F
OAK RIDGE      HVY RAIN  75  69  81 N12G18    30.09R VSB 3/4
GATLINBURG     CLEAR     82  70  65 W5        30.05F
MORRISTOWN     CLEAR     82  72  69 NW5       30.09F
$$

TNZ083-085-099-232000-
SOUTHEAST TENNESSEE

CITY           SKY/WX    TMP DP  RH WIND       PRES   REMARKS
CHATTANOOGA    PTSUNNY   89  68  49 NW6       30.04F HX  93
$$

SKY/WX REPORTED AS FAIR MEANS FEW OR NO CLOUDS BELOW
12 THOUSAND FEET.




USA.gov is the U.S. government's official web portal to all federal, state and local government web resources and services.